Spokane Fairchild, WA
on Sunday, February 24, 2013

Sunday
Previous Day Next Day
Daily Summary
 ActualAverage (KGEG)Record (KGEG)
Temperature
Mean Temperature °F 34°F  
Max Temperature 37°F 42°F 59°F (1995)
Min Temperature 23°F 27°F 3°F (2011)
Degree Days
Heating Degree Days 35 30  
Month to date heating degree days 776  
Since 1 July heating degree days 4709  
Cooling Degree Days 0 0  
Month to date cooling degree days 0  
Year to date cooling degree days 0  
Moisture
Dew Point 26°F   
Average Humidity 84    
Maximum Humidity 96    
Minimum Humidity 65    
Precipitation
Precipitation 0.00 in 0.05 in 0.66 in (1914)
Month to date precipitation 1.13  
Year to date precipitation 2.92  
Snow
Snow 0.00 in 0.20 in 5.40 in (2011)
Month to date snowfall 6.0  
Since 1 July snowfall 39.5  
Snow Depth in   
Wind
Wind Speed 9 mph   
Max Wind Speed 17 mph   
Max Gust Speed mph   
Visibility 10 miles   
Events     

Key: T is trace of precipitation, MM is missing value
Source: NWS Daily Summary
Time(PST)TemperatureDew PointHumidity Pressure Visibility Wind DirectionWind SpeedGust SpeedPrecipitationEvents Conditions
12:18 AM 26.6°F 23.0°F 86% 30.17 in 10.0 miles South 8.1 mph - N/A   Clear
12:42 AM 24.8°F 23.0°F 93% 30.18 in 10.0 miles SSW 6.9 mph - N/A   Clear
12:53 AM 26.6°F 23.0°F 86% 30.18 in 10.0 miles South 5.8 mph - N/A   Clear
12:58 AM 25.7°F 23.4°F 91% 30.26 in 10.0 miles South 5.8 mph - 0.00 in   Clear
1:07 AM 24.8°F 23.0°F 93% 30.18 in 10.0 miles South 8.1 mph - N/A   Clear
1:27 AM 26.6°F 23.0°F 86% 30.19 in 10.0 miles SSW 8.1 mph - N/A   Clear
1:58 AM 26.1°F 23.5°F 90% 30.26 in 10.0 miles SSW 6.9 mph - 0.00 in   Clear
2:58 AM 25.2°F 23.2°F 92% 30.26 in 10.0 miles SSW 5.8 mph - N/A   Clear
3:12 AM 24.8°F 23.0°F 93% 30.19 in 10.0 miles South 8.1 mph - N/A   Clear
3:27 AM 26.6°F 23.0°F 86% 30.20 in 10.0 miles SSW 8.1 mph - N/A   Clear
3:58 AM 25.3°F 23.7°F 94% 30.27 in 10.0 miles South 9.2 mph - 0.00 in   Clear
4:34 AM 24.8°F 23.0°F 93% 30.21 in 10.0 miles SSE 4.6 mph - N/A   Clear
4:45 AM 24.8°F 23.0°F 93% 30.21 in 10.0 miles SSE 5.8 mph - N/A   Clear
4:48 AM 24.8°F 23.0°F 93% 30.21 in 10.0 miles SSE 6.9 mph - N/A   Partly Cloudy
4:58 AM 24.8°F 23.4°F 94% 30.29 in 10.0 miles South 6.9 mph - 0.00 in   Partly Cloudy
5:58 AM 25.0°F 23.4°F 94% 30.31 in 10.0 miles SSW 9.2 mph - N/A   Clear
6:58 AM 23.9°F 22.8°F 96% 30.32 in 10.0 miles South 5.8 mph - N/A   Clear
7:44 AM 26.6°F 24.8°F 93% 30.24 in 10.0 miles SSW 8.1 mph - N/A   Mostly Cloudy
7:58 AM 26.1°F 24.6°F 94% 30.32 in 10.0 miles South 8.1 mph - 0.00 in   Mostly Cloudy
8:17 AM 26.6°F 24.8°F 93% 30.24 in 10.0 miles South 11.5 mph - N/A   Mostly Cloudy
8:43 AM 28.4°F 24.8°F 86% 30.24 in 10.0 miles South 10.4 mph - N/A   Mostly Cloudy
8:49 AM 28.4°F 26.6°F 93% 30.25 in 10.0 miles South 11.5 mph - N/A   Mostly Cloudy
8:58 AM 28.2°F 26.1°F 92% 30.34 in 10.0 miles South 11.5 mph - 0.00 in   Overcast
9:02 AM 28.4°F 26.6°F 93% 30.24 in 10.0 miles South 11.5 mph - N/A   Overcast
9:12 AM 28.4°F 26.6°F 93% 30.25 in 10.0 miles South 10.4 mph - N/A   Overcast
9:14 AM 28.4°F 26.6°F 93% 30.25 in 10.0 miles South 12.7 mph - N/A   Overcast
9:29 AM 30.2°F 26.6°F 86% 30.25 in 10.0 miles South 12.7 mph - N/A   Overcast
9:58 AM 31.1°F 27.3°F 86% 30.35 in 10.0 miles South 12.7 mph - 0.00 in   Overcast
10:58 AM 33.4°F 28.8°F 83% 30.35 in 10.0 miles SSW 10.4 mph - N/A   Overcast
11:58 AM 35.8°F 29.1°F 77% 30.33 in 10.0 miles South 17.3 mph - N/A   Overcast
12:11 PM 35.6°F 28.4°F 75% 30.25 in 10.0 miles South 15.0 mph - N/A   Overcast
12:22 PM 35.6°F 28.4°F 75% 30.25 in 10.0 miles SSW 16.1 mph - N/A   Overcast
12:58 PM 36.3°F 27.9°F 71% 30.32 in 10.0 miles South 11.5 mph - 0.00 in   Overcast
1:39 PM 35.6°F 28.4°F 75% 30.22 in 10.0 miles SSW 12.7 mph - N/A   Overcast
1:58 PM 36.3°F 27.5°F 70% 30.30 in 10.0 miles South 10.4 mph - 0.00 in   Overcast
1:59 PM 35.6°F 26.6°F 70% 30.22 in 10.0 miles SSW 9.2 mph - N/A   Overcast
2:24 PM 37.4°F 26.6°F 65% 30.21 in 10.0 miles South 12.7 mph - N/A   Overcast
2:34 PM 37.4°F 26.6°F 65% 30.21 in 10.0 miles SSW 10.4 mph - N/A   Overcast
2:37 PM 37.4°F 26.6°F 65% 30.21 in 10.0 miles South 10.4 mph - N/A   Overcast
2:48 PM 37.4°F 28.4°F 70% 30.21 in 10.0 miles South 12.7 mph - N/A   Overcast
2:55 PM 37.4°F 28.4°F 70% 30.20 in 10.0 miles South 12.7 mph - N/A   Overcast
2:58 PM 37.4°F 28.4°F 70% 30.28 in 10.0 miles South 12.7 mph - 0.00 in   Overcast
3:07 PM 37.4°F 28.4°F 70% 30.20 in 10.0 miles SSW 11.5 mph - N/A   Overcast
3:58 PM 36.1°F 27.9°F 72% 30.29 in 10.0 miles South 9.2 mph - 0.00 in   Overcast
4:58 PM 34.9°F 27.7°F 75% 30.27 in 10.0 miles South 5.8 mph - N/A   Mostly Cloudy
5:58 PM 32.7°F 27.3°F 81% 30.24 in 10.0 miles SE 4.6 mph - N/A   Mostly Cloudy
6:33 PM 32.0°F 26.6°F 80% 30.14 in 10.0 miles SSE 3.5 mph - N/A   Mostly Cloudy
6:42 PM 32.0°F 26.6°F 80% 30.14 in 10.0 miles SSE 4.6 mph - N/A   Mostly Cloudy
6:58 PM 31.5°F 27.7°F 86% 30.23 in 10.0 miles SSE 3.5 mph - 0.00 in   Overcast
7:27 PM 32.0°F 28.4°F 87% 30.13 in 10.0 miles SE 6.9 mph - N/A   Overcast
7:54 PM 32.0°F 28.4°F 87% 30.12 in 10.0 miles SSE 8.1 mph - N/A   Overcast
7:58 PM 32.5°F 28.4°F 85% 30.20 in 10.0 miles SSE 8.1 mph - 0.00 in   Overcast
8:58 PM 33.3°F 28.2°F 82% 30.17 in 10.0 miles SSE 8.1 mph - N/A   Overcast
9:58 PM 32.7°F 28.0°F 83% 30.15 in 10.0 miles SSE 8.1 mph - N/A   Overcast
10:58 PM 33.1°F 27.1°F 79% 30.11 in 10.0 miles SE 8.1 mph - N/A   Overcast
11:58 PM 32.0°F 27.1°F 82% 30.08 in 10.0 miles SE 4.6 mph - N/A   Overcast
Moon Phase
Feb. 24 Feb. 25 Mar. 04 Mar. 11 Mar. 19
Sunrise:06:39 AM (PST) Moon Rise:04:44 PM (PST)2/24
Sunset:05:28 PM (PST) Moon Set:05:41 AM (PST)2/24

Copyright © 2014 The Weather Underground, Inc.